CAPE
5 5 7 6 7 5 4 4 1 3 2 4 3 4 3 4 3 2 2 1 1 0 0 0 0 0 0 0 0 0 271 2131 1397 299 9 2 4 2 0 0 19 127 352 275 382 138 203
7 6 5 6 7 2 3 5 4 3 4 3 5 3 4 4 3 2 1 0 0 0 0 0 0 0 0 0 0 0 0 14 0 0 0 0 0 0 0 0 0 0 191 410 223 205 397
6 3 3 7 8 3 3 4 3 3 3 5 4 4 4 3 3 1 0 0 0 0 0 0 0 0 0 0 0 0 0 0 0 0 0 0 0 0 0 0 0 0 111 221 188 414 303
1 1 2 6 4 4 3 1 1 5 4 4 4 2 4 3 2 1 0 0 0 0 0 0 0 0 0 0 0 0 0 0 0 0 0 0 0 0 0 0 0 0 1 76 118 180 129
1 2 2 2 3 6 3 2 5 3 2 4 0 0 0 2 2 1 1 0 0 0 0 0 0 0 0 0 0 0 0 0 0 0 0 0 0 0 0 0 0 0 0 0 153 173 69
1 3 1 3 2 4 0 2 1 1 3 1 1 0 1 3 2 1 1 0 0 0 0 0 0 0 0 0 0 0 0 0 0 0 0 0 0 0 0 0 0 0 0 0 1 117 66
4 6 3 0 0 0 3 5 4 1 0 0 0 0 2 4 2 0 0 0 0 0 0 0 0 0 0 0 0 0 0 0 0 0 0 0 0 0 0 0 0 0 0 0 0 0 80
2 3 1 5 5 6 1 1 0 0 1 0 1 0 0 3 1 2 0 0 0 0 0 0 0 0 0 0 0 0 0 0 0 0 0 0 0 0 0 0 0 0 0 0 0 0 0
4 5 6 7 4 2 1 2 4 2 0 3 0 0 1 2 1 0 0 0 0 0 0 0 0 0 0 0 0 0 0 0 0 0 0 0 0 0 0 0 0 0 0 0 0 0 0
7 6 7 8 8 6 1 0 0 1 4 0 0 0 0 1 0 0 0 0 0 0 0 0 0 0 0 0 0 0 0 0 0 0 0 0 0 0 0 0 0 0 0 0 0 0 0
7 9 9 9 10 9 6 4 3 5 3 2 1 0 0 1 0 0 0 0 0 0 0 0 0 0 0 0 0 0 0 0 0 0 0 0 0 0 0 0 0 0 0 0 0 0 0
1 0 0 0 1 6 5 4 4 4 6 6 4 0 0 0 0 0 0 0 0 0 0 0 0 0 0 0 0 0 0 0 0 0 0 0 0 0 0 0 0 0 0 0 0 0 0
1 4 0 0 0 1 2 4 4 2 4 3 1 0 0 0 0 0 0 0 0 0 0 0 0 0 0 0 0 0 0 0 0 0 0 0 0 0 0 0 0 0 0 0 0 0 0
1 1 1 1 0 0 3 4 4 2 3 0 0 0 0 0 0 0 0 0 0 0 0 0 0 0 0 0 0 0 0 0 0 0 0 0 0 0 0 0 0 0 0 0 0 0 0
4 4 4 4 1 0 0 1 1 2 2 0 0 0 0 0 0 0 0 0 0 0 0 0 0 0 0 0 0 0 0 0 0 0 0 0 0 0 0 0 0 0 0 0 0 0 0
1 0 0 2 0 0 1 1 1 1 1 0 0 0 0 0 0 0 0 0 0 0 0 0 0 0 0 0 0 0 0 0 0 0 0 0 0 0 0 0 0 0 0 0 0 0 0
0 1 0 1 0 0 3 3 1 1 0 0 0 0 0 0 0 0 0 0 0 0 0 0 0 0 0 0 0 0 0 0 0 0 0 0 0 0 0 0 0 0 0 0 0 0 0
0 0 1 0 1 0 2 1 0 0 0 0 0 0 0 0 0 0 0 0 0 0 0 0 0 0 0 0 0 0 0 0 0 0 0 0 0 0 0 0 0 0 0 0 0 0 0
0 0 1 0 0 2 1 0 0 0 0 0 0 0 0 0 0 0 0 0 0 0 0 0 0 0 0 0 0 0 0 0 0 0 0 0 0 0 0 0 0 0 0 0 0 0 0
0 0 2 0 0 1 1 0 0 0 0 0 0 0 0 0 0 0 0 0 0 0 0 0 0 0 0 0 0 0 0 0 0 0 0 0 0 0 0 0 0 0 0 0 0 0 0
0 0 2 0 1 0 1 1 0 0 0 0 0 0 0 0 0 0 0 0 0 0 0 0 0 0 0 0 0 0 0 0 0 0 0 0 0 0 0 0 0 0 0 0 0 0 0
3 2 0 1 0 1 1 0 0 0 0 0 0 0 0 0 0 0 0 0 0 0 0 0 0 0 0 0 0 0 0 0 0 0 0 0 0 0 0 0 0 0 0 0 0 0 0
3 1 1 1 4 1 0 0 0 0 0 0 0 0 0 0 0 0 0 0 0 0 0 0 0 0 0 0 0 0 0 0 0 0 0 0 0 0 0 0 0 0 0 0 0 0 0
0 2 1 1 3 1 0 0 0 0 0 0 0 0 0 0 0 0 0 0 0 0 0 0 0 0 0 0 0 0 0 0 0 0 0 0 0 0 0 0 0 0 0 0 0 0 0
3 4 2 4 1 1 1 0 0 0 0 0 0 0 0 0 0 0 0 0 0 0 0 0 0 0 0 0 0 0 0 0 0 0 0 0 0 0 0 0 0 0 0 0 0 0 0
2 3 2 3 3 1 2 0 0 0 0 0 0 0 0 0 0 0 0 0 0 0 0 0 0 0 0 0 0 0 0 0 0 0 0 0 0 0 0 0 0 0 0 0 0 0 0
2 4 3 0 3 3 4 0 1 0 0 0 0 0 0 0 0 0 0 0 0 0 0 0 0 0 0 0 0 0 0 0 0 0 0 0 0 0 0 0 0 0 0 0 0 0 0
4 5 4 0 1 3 2 1 1 1 0 0 0 0 0 0 0 0 0 0 0 0 0 0 0 0 0 0 0 0 0 0 0 0 0 0 0 0 0 0 0 0 0 0 0 0 0
2 6 5 4 0 0 3 2 1 0 0 0 0 0 0 0 0 0 0 0 0 0 0 0 0 0 0 0 0 0 0 0 0 0 0 0 0 0 0 0 0 0 0 0 0 0 0
CIN
-0 -0 -0 -0 -0 -0 -0 -0 -0 -0 -0 -0 -0 -0 -0 -0 -0 -0 -0 -0 -0 -0 -0 -0 -0 -0 -0 -0 -0 -0 -641 -380 -438 -560 -578 -230 -332 -42 -0 -0 -111 -131 -171 -230 -238 -333 -287
-0 -0 -0 -0 -0 -0 -0 -0 -0 -0 -0 -0 -0 -0 -0 -0 -0 -0 -0 -0 -0 -0 -0 -0 -0 -0 -0 -0 -0 -0 -0 -276 -0 -0 -0 -0 -0 -0 -0 -0 -0 -0 -228 -164 -236 -279 -235
-0 -0 -0 -0 -0 -0 -0 -0 -0 -0 -0 -0 -0 -0 -0 -0 -0 -0 -0 -0 -0 -0 -0 -0 -0 -0 -0 -0 -0 -0 -0 -0 -0 -0 -0 -0 -0 -0 -0 -0 -0 -0 -177 -230 -233 -247 -254
-0 -0 -0 -0 -0 -0 -0 -0 -0 -0 -0 -0 -0 -0 -0 -0 -0 -0 -0 -0 -0 -0 -0 -0 -0 -0 -0 -0 -0 -0 -0 -0 -0 -0 -0 -0 -0 -0 -0 -0 -0 -0 -27 -176 -199 -240 -246
-0 -0 -0 -0 -0 -0 -0 -0 -0 -0 -0 -0 -0 -0 -0 -0 -0 -0 -0 -0 -0 -0 -0 -0 -0 -0 -0 -0 -0 -0 -0 -0 -0 -0 -0 -0 -0 -0 -0 -0 -0 -0 -0 -0 -111 -271 -302
-0 -0 -0 -0 -0 -0 -0 -0 -0 -0 -0 -0 -0 -0 -0 -0 -0 -0 -0 -0 -0 -0 -0 -0 -0 -0 -0 -0 -0 -0 -0 -0 -0 -0 -0 -0 -0 -0 -0 -0 -0 -0 -0 -0 -4 -176 -235
-0 -0 -0 -0 -0 -0 -0 -0 -0 -0 -0 -0 -0 -0 -0 -0 -0 -0 -0 -0 -0 -0 -0 -0 -0 -0 -0 -0 -0 -0 -0 -0 -0 -0 -0 -0 -0 -0 -0 -0 -0 -0 -0 -0 -0 -0 -137
-0 -0 -0 -0 -0 -0 -0 -0 -0 -0 -0 -0 -0 -0 -0 -0 -0 -0 -0 -0 -0 -0 -0 -0 -0 -0 -0 -0 -0 -0 -0 -0 -0 -0 -0 -0 -0 -0 -0 -0 -0 -0 -0 -0 -0 -0 -0
-0 -0 -0 -0 -0 -0 -0 -0 -0 -0 -0 -0 -0 -0 -0 -0 -0 -0 -0 -0 -0 -0 -0 -0 -0 -0 -0 -0 -0 -0 -0 -0 -0 -0 -0 -0 -0 -0 -0 -0 -0 -0 -0 -0 -0 -0 -0
-0 -0 -0 -0 -0 -0 -0 -0 -0 -0 -0 -0 -0 -0 -0 -0 -0 -0 -0 -0 -0 -0 -0 -0 -0 -0 -0 -0 -0 -0 -0 -0 -0 -0 -0 -0 -0 -0 -0 -0 -0 -0 -0 -0 -0 -0 -0
-0 -0 -0 -0 -0 -0 -0 -0 -0 -0 -0 -0 -0 -0 -0 -1 -0 -0 -0 -0 -0 -0 -0 -0 -0 -0 -0 -0 -0 -0 -0 -0 -0 -0 -0 -0 -0 -0 -0 -0 -0 -0 -0 -0 -0 -0 -0
-1 -0 -0 -0 -0 -0 -0 -0 -0 -0 -0 -0 -0 -0 -0 -0 -0 -0 -0 -0 -0 -0 -0 -0 -0 -0 -0 -0 -0 -0 -0 -0 -0 -0 -0 -0 -0 -0 -0 -0 -0 -0 -0 -0 -0 -0 -0
-0 -0 -0 -0 -0 -0 -0 -0 -0 -0 -0 -0 -0 -0 -0 -0 -0 -0 -0 -0 -0 -0 -0 -0 -0 -0 -0 -0 -0 -0 -0 -0 -0 -0 -0 -0 -0 -0 -0 -0 -0 -0 -0 -0 -0 -0 -0
-0 -0 -0 -0 -0 -0 -0 -0 -0 -0 -0 -0 -0 -0 -0 -0 -0 -0 -0 -0 -0 -0 -0 -0 -0 -0 -0 -0 -0 -0 -0 -0 -0 -0 -0 -0 -0 -0 -0 -0 -0 -0 -0 -0 -0 -0 -0
-1 -0 -1 -1 -0 -0 -0 -0 -0 -0 -0 -0 -0 -0 -0 -0 -0 -0 -0 -0 -0 -0 -0 -0 -0 -0 -0 -0 -0 -0 -0 -0 -0 -0 -0 -0 -0 -0 -0 -0 -0 -0 -0 -0 -0 -0 -0
-0 -0 -0 -0 -0 -1 -0 -0 -0 -0 -0 -0 -0 -0 -0 -0 -0 -0 -0 -0 -0 -0 -0 -0 -0 -0 -0 -0 -0 -0 -0 -0 -0 -0 -0 -0 -0 -0 -0 -0 -0 -0 -0 -0 -0 -0 -0
-0 -0 -0 -0 -0 -0 -0 -0 -0 -0 -0 -0 -0 -0 -0 -0 -0 -0 -0 -0 -0 -0 -0 -0 -0 -0 -0 -0 -0 -0 -0 -0 -0 -0 -0 -0 -0 -0 -0 -0 -0 -0 -0 -0 -0 -0 -0
-0 -0 -0 -0 -0 -0 -0 -0 -0 -0 -0 -0 -0 -0 -0 -0 -0 -0 -0 -0 -0 -0 -0 -0 -0 -0 -0 -0 -0 -0 -0 -0 -0 -0 -0 -0 -0 -0 -0 -0 -0 -0 -0 -0 -0 -0 -0
-0 -0 -0 -0 -0 -0 -0 -0 -0 -0 -0 -0 -0 -0 -0 -0 -0 -0 -0 -0 -0 -0 -0 -0 -0 -0 -0 -0 -0 -0 -0 -0 -0 -0 -0 -0 -0 -0 -0 -0 -0 -0 -0 -0 -0 -0 -0
-0 -0 -0 -0 -0 -0 -0 -0 -0 -0 -0 -0 -0 -0 -0 -0 -0 -0 -0 -0 -0 -0 -0 -0 -0 -0 -0 -0 -0 -0 -0 -0 -0 -0 -1 -0 -0 -0 -0 -0 -0 -0 -0 -0 -0 -0 -0
-0 -0 -0 -0 -0 -0 -0 -0 -0 -0 -0 -0 -0 -0 -0 -0 -0 -0 -0 -0 -0 -0 -0 -0 -0 -0 -0 -0 -0 -0 -0 -0 -0 -0 -0 -0 -0 -0 -0 -0 -0 -0 -0 -0 -0 -0 -0
-0 -0 -0 -0 -0 -0 -0 -0 -0 -0 -0 -0 -0 -0 -0 -0 -0 -0 -0 -0 -0 -0 -0 -0 -0 -0 -0 -0 -0 -0 -0 -0 -0 -0 -0 -0 -0 -0 -0 -0 -0 -0 -0 -0 -0 -0 -0
-0 -0 -0 -0 -0 -0 -0 -0 -0 -0 -0 -0 -0 -0 -0 -0 -0 -0 -0 -0 -0 -0 -0 -0 -0 -0 -0 -0 -0 -0 -0 -0 -0 -0 -0 -0 -0 -0 -0 -0 -0 -0 -0 -0 -0 -0 -0
-0 -1 -0 -0 -0 -0 -0 -0 -0 -0 -0 -0 -0 -0 -0 -0 -0 -0 -0 -0 -0 -0 -0 -0 -0 -0 -0 -0 -0 -0 -0 -0 -0 -0 -0 -0 -0 -0 -0 -0 -0 -0 -0 -0 -0 -0 -0
-0 -1 -2 -1 -0 -0 -1 -0 -0 -0 -0 -0 -0 -0 -0 -0 -0 -0 -0 -0 -0 -0 -0 -0 -0 -0 -0 -0 -0 -0 -0 -0 -0 -0 -0 -0 -0 -0 -0 -0 -0 -0 -0 -0 -0 -0 -0
-1 -1 -3 -1 -2 -0 -3 -0 -0 -0 -0 -0 -0 -0 -0 -0 -0 -0 -0 -0 -0 -0 -0 -0 -0 -0 -0 -0 -0 -0 -0 -0 -0 -0 -0 -0 -0 -0 -0 -0 -0 -0 -0 -0 -0 -0 -0
-0 -0 -0 -1 -2 -4 -4 -0 -0 -0 -0 -0 -0 -0 -0 -0 -0 -0 -0 -0 -0 -0 -0 -0 -0 -0 -0 -0 -0 -0 -0 -0 -0 -0 -0 -0 -0 -0 -0 -0 -0 -0 -0 -0 -0 -0 -0
-0 -0 -1 -2 -0 -1 -7 -6 -0 -0 -0 -0 -0 -0 -0 -0 -0 -0 -0 -0 -0 -0 -0 -0 -0 -0 -0 -0 -0 -0 -0 -0 -0 -0 -0 -0 -0 -0 -0 -0 -0 -0 -0 -0 -0 -0 -0
-0 -0 -0 -1 -0 -0 -1 -10 -0 -0 -0 -0 -0 -0 -0 -0 -0 -0 -0 -0 -0 -0 -0 -0 -0 -0 -0 -0 -0 -0 -0 -0 -0 -0 -0 -0 -0 -0 -0 -0 -0 -0 -0 -0 -0 -0 -0
Wind_Speed
9 10 10 10 10 10 11 12 13 13 14 14 14 15 15 15 16 16 15 14 15 14 13 15 15 13 6 2 7 5 12 14 11 6 7 6 7 7 4 6 5 1 3 5 2 5 2
8 10 11 11 11 10 11 12 13 13 14 15 15 15 15 15 16 16 16 15 15 14 13 13 12 12 2 1 2 7 10 10 7 8 5 7 6 7 4 1 2 6 5 4 2 4 2
11 11 11 11 11 11 11 12 12 13 14 15 15 16 15 15 16 17 17 17 16 15 12 11 10 3 2 8 2 6 8 5 5 5 4 6 1 4 6 8 2 5 2 4 4 5 4
10 11 11 12 12 12 12 13 13 14 14 15 16 16 16 16 17 18 19 19 18 15 9 7 5 1 7 2 2 4 4 5 4 4 4 8 2 3 3 5 8 6 6 2 4 10 5
11 11 12 12 12 13 13 13 13 14 14 15 17 17 17 17 17 17 19 22 16 7 4 2 0 0 7 8 1 5 5 3 1 1 5 7 5 3 7 4 7 7 5 8 1 10 4
11 11 11 11 12 12 13 13 13 14 15 16 16 16 17 17 16 17 23 12 7 3 3 4 3 3 4 3 4 4 3 3 2 3 6 6 7 4 5 6 3 7 7 7 6 8 6
11 11 11 11 13 12 13 13 14 15 15 15 16 17 17 16 16 13 13 3 4 3 1 7 4 3 4 7 3 4 4 5 2 7 0 5 5 4 7 5 6 4 6 6 4 3 4
11 11 11 12 12 12 13 14 15 15 16 17 16 17 18 17 16 14 1 2 4 2 7 6 3 6 6 2 3 1 4 4 3 3 1 7 4 9 5 6 6 6 7 6 5 3 7
12 12 12 12 12 12 13 13 13 13 14 14 17 17 17 17 20 0 1 5 2 4 3 7 5 4 5 8 5 6 5 3 3 0 1 4 8 6 3 7 7 4 3 1 4 6 4
12 12 12 12 12 12 11 12 13 14 14 16 16 16 17 22 3 4 5 5 6 4 6 5 3 7 4 5 3 6 5 6 1 7 4 5 4 1 3 4 3 3 2 2 2 5 2
13 12 12 12 12 13 13 13 14 14 15 15 15 14 14 9 3 1 5 10 8 4 4 3 3 1 1 7 3 3 3 5 8 5 6 8 6 6 5 7 5 8 2 3 3 4 2
14 15 15 15 15 15 14 14 14 15 14 13 13 12 11 1 1 7 10 9 4 6 1 1 4 5 5 3 3 0 3 4 3 5 2 8 1 5 9 5 2 3 2 7 6 3 5
14 14 16 16 16 16 16 16 16 15 15 13 11 8 4 2 3 7 7 5 6 3 3 4 4 4 3 3 3 3 5 4 4 4 4 7 4 5 2 2 2 6 8 5 8 8 5
14 15 16 17 17 17 17 17 17 17 16 14 10 8 5 6 2 7 5 7 2 1 5 1 4 3 6 5 3 1 5 1 2 5 3 2 9 5 2 4 5 3 7 7 2 1 7
12 13 14 14 18 19 20 19 18 18 17 15 11 1 3 5 7 2 6 3 7 6 3 2 5 4 3 3 3 2 4 5 7 9 8 5 5 6 3 3 5 1 1 3 8 3 3
15 16 17 16 18 19 20 19 19 19 18 14 1 2 4 4 8 5 6 5 5 5 4 1 4 5 4 2 4 6 6 6 5 13 5 5 2 2 7 5 3 3 6 3 5 1 2
14 15 16 17 18 17 19 19 20 19 17 6 2 3 3 5 3 7 4 7 6 7 2 1 3 3 4 4 8 6 5 6 6 4 7 6 5 7 2 4 1 7 5 6 6 5 6
14 15 15 17 18 18 19 20 19 18 18 1 2 3 2 1 5 1 3 6 5 5 1 4 3 3 5 5 4 7 7 7 5 7 9 2 6 3 2 1 5 4 4 4 6 6 1
13 14 15 16 17 17 19 19 19 16 10 2 2 2 3 4 3 2 5 4 3 3 2 4 2 2 2 3 3 4 2 4 2 4 8 7 2 3 10 8 5 6 5 4 4 3 2
12 14 14 16 17 18 19 20 20 20 13 4 3 2 4 4 1 5 1 5 5 3 6 5 3 4 4 5 7 3 6 7 6 6 9 7 4 8 7 5 2 3 5 3 6 4 1
12 13 13 15 16 18 19 20 21 23 9 1 2 2 3 3 5 5 4 3 4 5 4 5 1 4 4 3 3 3 4 5 7 9 5 6 4 3 2 3 3 2 1 3 3 2 3
10 12 13 15 16 18 18 19 21 22 7 2 2 2 4 1 3 2 6 5 7 6 4 6 6 2 6 6 5 5 1 3 1 7 5 4 1 2 2 2 1 1 2 2 1 2 2
8 11 12 15 14 17 17 18 19 20 11 2 2 2 4 3 4 2 4 5 6 6 3 1 13 9 9 7 6 5 3 3 1 5 3 4 4 3 4 3 4 3 3 1 2 2 3
7 8 12 14 14 17 16 17 18 17 14 1 2 2 4 3 1 3 4 3 4 3 7 2 6 7 3 4 4 5 6 4 2 2 4 5 5 3 4 3 2 9 3 1 7 2 4
9 8 9 11 14 16 14 16 17 19 17 2 2 2 2 1 3 5 7 4 5 6 5 4 5 2 7 8 6 6 7 6 5 2 2 2 6 3 5 5 4 5 2 4 6 2 5
9 10 9 10 11 13 12 15 16 17 19 2 2 0 3 5 5 3 3 3 2 4 6 4 4 2 7 5 5 4 2 4 4 8 6 6 5 6 3 4 7 6 4 4 4 2 11
10 10 9 9 11 12 13 15 15 16 17 2 3 2 4 2 5 1 2 2 1 2 2 4 5 5 5 3 3 3 3 3 3 3 2 3 3 5 3 4 5 4 9 3 6 5 7
9 10 9 9 10 12 12 12 14 15 16 6 4 3 3 2 7 4 2 2 2 2 3 3 4 4 4 5 4 4 3 4 0 4 2 5 4 3 2 3 3 8 3 7 5 3 3
9 9 9 10 11 12 13 11 11 13 14 10 2 3 2 3 6 3 6 7 6 6 5 2 4 3 5 5 1 3 2 2 3 2 3 1 6 5 5 5 5 5 7 3 2 2 3
Wind_Direction
352 358 350 351 349 350 348 342 339 337 336 338 336 335 335 332 331 329 327 326 324 321 320 314 315 322 321 10 254 119 131 133 140 152 220 199 182 203 233 231 100 250 253 210 241 254 234
2 352 352 348 347 346 346 341 336 336 335 336 334 333 333 332 329 326 323 321 317 314 312 310 312 316 315 218 147 148 141 149 173 218 212 192 224 243 255 42 104 218 204 162 148 188 311
355 350 348 345 343 343 342 337 335 333 330 331 332 332 333 332 329 325 321 315 312 306 301 301 305 298 24 225 72 161 159 194 193 206 273 213 205 8 335 330 149 250 89 31 185 166 248
352 344 347 343 342 340 338 333 334 332 329 330 332 334 333 332 328 322 316 311 307 299 287 275 316 301 242 267 53 176 174 292 241 248 273 291 314 246 35 303 351 33 73 86 230 159 254
350 347 345 342 342 339 336 333 334 330 328 331 333 334 332 330 325 319 313 311 302 289 221 222 186 106 265 316 150 231 159 228 206 272 274 291 38 38 14 35 2 6 322 317 175 180 123
350 348 343 343 338 337 329 328 328 329 329 331 332 330 327 324 322 322 318 294 285 306 177 196 260 30 286 236 266 191 204 169 304 333 355 25 42 29 38 62 308 314 322 322 293 168 176
359 345 343 338 337 335 332 331 330 331 331 330 330 327 323 320 320 330 346 28 28 11 123 198 182 255 268 294 254 218 149 114 96 52 132 352 46 264 267 217 232 252 270 282 254 217 139
347 344 345 338 338 337 338 336 334 330 329 328 326 324 322 317 317 323 332 20 73 56 311 231 226 278 266 181 315 3 101 126 112 194 43 16 269 261 273 266 256 213 250 286 313 198 167
348 349 346 344 342 342 340 334 326 320 316 319 324 324 322 319 315 53 209 234 232 287 160 295 191 194 220 146 201 225 114 133 126 176 59 159 247 335 336 324 326 297 224 166 227 327 45
345 343 341 340 337 332 330 323 320 319 323 326 323 325 326 325 330 327 265 270 314 209 67 280 231 267 157 144 278 210 164 138 121 196 204 231 292 38 334 276 205 283 287 215 254 65 273
351 349 348 348 345 338 332 326 324 320 322 323 320 323 326 324 293 225 301 318 307 64 73 184 206 93 37 135 299 27 188 69 177 190 98 257 297 321 305 237 165 230 345 5 38 110 58
359 357 357 355 354 345 337 329 326 322 319 318 314 314 320 87 261 252 299 301 64 39 141 229 159 141 99 18 302 9 143 72 149 144 359 230 311 221 216 216 225 14 352 38 51 61 39
4 360 357 358 356 346 338 334 331 327 323 318 307 300 280 306 240 315 308 40 43 136 357 194 180 129 108 167 262 147 158 179 152 81 344 328 263 291 202 271 2 80 49 348 6 14 224
5 4 0 357 355 349 339 338 335 331 327 319 311 303 240 232 271 351 28 50 185 202 221 248 110 69 156 163 262 98 96 166 221 96 127 102 347 353 266 196 178 67 135 146 240 253 272
4 0 358 354 354 350 348 345 337 335 332 328 318 210 264 255 196 132 71 86 215 211 262 161 70 108 232 222 165 116 186 215 210 170 157 138 274 312 273 151 114 185 43 187 106 16 38
4 2 359 356 354 348 348 341 339 338 336 333 24 354 260 146 164 74 77 234 246 231 341 144 132 162 172 213 153 164 189 229 200 191 159 194 23 302 292 53 17 108 165 22 14 136 314
360 358 358 355 353 343 339 340 340 339 339 354 30 38 268 173 102 51 163 234 273 259 280 204 168 154 168 189 190 197 212 277 203 150 143 138 114 287 25 56 158 12 11 52 120 116 159
353 354 354 355 353 346 341 340 340 339 337 16 83 53 314 66 67 41 181 209 287 297 359 301 139 171 166 185 145 182 203 229 160 138 152 168 128 169 180 244 349 110 167 112 108 281 115
350 351 352 354 355 347 341 339 339 340 357 337 97 245 358 77 146 248 279 281 260 300 289 307 61 88 11 64 82 68 289 9 101 106 161 180 38 46 356 359 3 55 331 95 114 87 176
353 352 353 356 356 354 344 340 339 341 329 162 82 72 343 50 148 135 345 275 262 253 248 222 180 84 82 52 17 29 21 11 355 56 44 87 99 138 179 198 206 9 339 46 101 69 224
354 356 358 359 359 357 347 345 344 350 9 163 58 261 195 224 285 225 161 282 308 330 266 180 74 125 134 102 66 10 2 7 15 348 45 82 94 108 180 186 161 221 272 3 48 165 152
347 359 2 2 2 1 349 349 349 353 9 20 111 62 360 285 313 292 160 249 223 256 243 259 133 83 118 121 179 168 176 49 327 359 60 19 126 148 157 71 219 220 355 29 336 326 300
346 352 357 4 2 3 354 353 355 358 355 23 324 354 109 297 344 88 213 241 252 192 293 187 138 102 89 162 173 175 165 130 116 134 86 69 112 73 251 342 81 8 225 284 98 341 248
335 334 346 355 357 2 355 355 357 2 17 202 279 92 83 280 14 282 300 311 348 351 136 103 90 96 173 91 79 55 62 49 169 88 127 128 102 116 211 18 196 239 286 124 117 339 337
317 322 327 336 351 356 352 353 356 355 1 183 299 88 125 208 242 300 335 6 349 339 32 62 6 122 122 57 57 33 350 21 337 286 238 75 123 130 160 191 276 289 1 139 176 333 341
311 314 319 323 327 342 346 350 355 356 358 41 289 169 119 129 243 266 292 350 58 348 5 2 350 38 63 80 76 116 185 206 309 333 53 64 68 126 132 167 212 233 280 338 109 341 339
323 313 313 314 319 329 340 348 353 355 359 1 289 356 97 147 256 233 181 221 140 108 137 304 345 28 59 87 93 142 229 213 221 198 259 352 20 165 164 208 285 291 299 291 140 228 328
327 320 316 320 326 327 331 339 346 353 358 14 277 333 101 175 274 232 260 179 30 68 137 262 56 352 48 70 125 192 145 230 115 230 203 178 147 215 116 102 219 347 343 99 204 294 301
329 325 325 326 324 326 325 331 342 347 357 5 326 334 315 159 239 259 262 248 188 201 148 353 168 161 182 93 106 107 135 82 148 264 347 324 176 178 162 202 207 331 96 98 153 223 328